Weather History for EGNH - June, 2013

Change the Weather History Date:

Monday, June 17, 2013

  Actual Average Record
Temperature  
Mean Temperature 61 °F -  
Max Temperature 68 °F 63 °F 78 °F (2000)
Min Temperature 54 °F 53 °F 50 °F (1997)
Degree Days  
Heating Degree Days 4    
Growing Degree Days 11 (Base 50)    
Moisture  
Dew Point 52 °F    
Average Humidity 66    
Maximum Humidity 88    
Minimum Humidity 46    
Precipitation  
Precipitation 0.00 in - - ()
Sea Level Pressure  
Sea Level Pressure 30.01 in    
Wind  
Wind Speed 6 mph ()    
Max Wind Speed 13 mph    
Max Gust Speed -    
Visibility 6.2 miles    
Events Rain    
Averages and records for this station are not official NWS values.
T = Trace of Precipitation, MM = Missing Value Source: Averaged Metar Reports

Daily Weather History Graph

Daily Weather History Graph

Search for Another Location

Airport or City:

Trip Planner

Search our weather history database for the weather conditions in past years. The results will help you decide how hot, cold, wet, or windy it might be!

Date:

Astronomy

Jun. 17, 2013 Rise Set
Actual Time 4:40 AM BST 9:45 PM BST
Civil Twilight 3:46 AM BST 10:39 PM BST
Nautical Twilight 2:06 AM BST 12:20 AM BST
Astronomical Twilight Sun does not rise Sun does not rise
Moon 2:19 PM BST (6/17) 1:03 AM BST (6/17)
Length of Visible Light 18h 52m
Length of Day
17h 05m
First Quarter, 58% of the Moon is Illuminated
Jun 17
First Quarter
Jun 23
Full
Jun 30
Last Quarter
Jul 8
New
Jul 16
First Quarter

Hourly Weather History & Observations

Time (BST) Temp. Dew Point Humidity Pressure Visibility Wind Dir Wind Speed Gust Speed Precip Events Conditions
12:50 AM 56 °F 51 °F 78%  in - East 4.6 mph - -  
3:50 AM 55 °F 52 °F 85%  in - East 3.5 mph - -  
5:50 AM 57.2 °F 51.8 °F 82% 29.98 in - ENE 4.6 mph - N/A   Clear
6:20 AM 57.2 °F 51.8 °F 82% 29.98 in - ENE 4.6 mph - N/A   Clear
6:50 AM 56 °F 52 °F 82%  in - East 4.6 mph - -  
6:50 AM 57.2 °F 51.8 °F 82% 29.98 in 6.2 mi ENE 4.6 mph - N/A   Light Drizzle
7:20 AM 57.2 °F 51.8 °F 82% 30.01 in 6.2 mi East 3.5 mph - N/A   Partly Cloudy
7:50 AM 57.2 °F 53.6 °F 88% 30.01 in 6.2 mi East 5.8 mph - N/A   Light Drizzle
8:20 AM 59.0 °F 53.6 °F 82% 30.01 in 6.2 mi ENE 5.8 mph - N/A   Light Drizzle
8:50 AM 59.0 °F 53.6 °F 82% 30.01 in 6.2 mi ENE 6.9 mph - N/A   Partly Cloudy
9:20 AM 60.8 °F 53.6 °F 77% 30.01 in 6.2 mi ENE 6.9 mph - N/A   Partly Cloudy
9:50 AM 61 °F 53 °F 69%  in - East 8.1 mph - -  
9:50 AM 60.8 °F 51.8 °F 72% 30.01 in 6.2 mi East 8.1 mph - N/A   Partly Cloudy
10:20 AM 62.6 °F 53.6 °F 72% 30.01 in 6.2 mi East 6.9 mph - N/A   Partly Cloudy
10:50 AM 64.4 °F 51.8 °F 64% 30.01 in 6.2 mi East 6.9 mph - N/A   Partly Cloudy
11:20 AM 64.4 °F 51.8 °F 64% 30.01 in 6.2 mi NE 8.1 mph - N/A   Partly Cloudy
11:50 AM 64.4 °F 50.0 °F 59% 30.01 in 6.2 mi ENE 6.9 mph - N/A   Scattered Clouds
12:20 PM 66.2 °F 50.0 °F 56% 30.01 in 6.2 mi NE 5.8 mph - N/A   Scattered Clouds
12:50 PM 66 °F 51 °F 48%  in - ESE 6.9 mph - -  
12:50 PM 66.2 °F 51.8 °F 60% 30.04 in 6.2 mi East 6.9 mph - N/A   Scattered Clouds
1:20 PM 66.2 °F 51.8 °F 60% 30.04 in 6.2 mi ENE 9.2 mph - N/A   Scattered Clouds
1:50 PM 68.0 °F 51.8 °F 56% 30.01 in 6.2 mi East 11.5 mph - N/A   Mostly Cloudy
2:20 PM 66.2 °F 51.8 °F 60% 30.01 in 6.2 mi East 10.4 mph - N/A Rain Light Rain
2:50 PM 66.2 °F 50.0 °F 56% 30.01 in 6.2 mi East 11.5 mph - N/A   Scattered Clouds
3:20 PM 68.0 °F 51.8 °F 56% 30.01 in 6.2 mi ESE 9.2 mph - N/A   Scattered Clouds
3:50 PM 67 °F 51 °F 46%  in - ESE 12.7 mph - -  
3:50 PM 68.0 °F 50.0 °F 52% 30.01 in 6.2 mi East 12.7 mph - N/A   Scattered Clouds
4:20 PM 68.0 °F 50.0 °F 52% 30.01 in 6.2 mi East 8.1 mph - N/A Rain Light Rain Showers
4:50 PM 66.2 °F 51.8 °F 60% 30.01 in 6.2 mi East 9.2 mph - N/A Rain Light Rain Showers
5:20 PM 66.2 °F 50.0 °F 56% 30.01 in 6.2 mi ESE 8.1 mph - N/A Rain Light Rain Showers
5:50 PM 64.4 °F 50.0 °F 59% 30.01 in 6.2 mi ESE 6.9 mph - N/A   Partly Cloudy
6:20 PM 64.4 °F 50.0 °F 59% 30.01 in 6.2 mi East 6.9 mph - N/A   Partly Cloudy
6:50 PM 64 °F 52 °F 56%  in - ESE 6.9 mph - -  
6:50 PM 64.4 °F 51.8 °F 64% 30.01 in 6.2 mi East 5.8 mph - N/A   Partly Cloudy
7:20 PM 64.4 °F 51.8 °F 64% 30.01 in 6.2 mi East 4.6 mph - N/A   Partly Cloudy
7:50 PM 64.4 °F 51.8 °F 64% 30.04 in - East 6.9 mph - N/A   Clear
8:20 PM 62.6 °F 51.8 °F 68% 30.01 in - ENE 5.8 mph - N/A   Clear
8:50 PM 62.6 °F 51.8 °F 68% 30.01 in - East 6.9 mph - N/A   Clear
9:20 PM 62.6 °F 50.0 °F 63% 30.04 in - East 9.2 mph - N/A   Clear
9:50 PM 61 °F 50 °F 57%  in - East 9.2 mph - -  
9:50 PM 62.6 °F 50.0 °F 63% 30.04 in - East 9.2 mph - N/A   Clear